#timestamp,LO_Frequency,Hit,StdDev 
1525680015.4,286047004.2,N
1525680035.2,286047002.8,N
1525680055.1,286047000.2,N
1525680056.0,286047000.2,N
1525680075.8,286046998.5,N
1525680095.6,286047000.5,N
1525680115.5,286047000.1,N
1525680135.3,286047001.5,N
1525680155.1,286047000.4,N
1525680175.9,286047000.5,N
1525680195.7,286047000.4,N
1525680215.6,286047002.1,N
1525680235.4,286047004.0,N
1525680255.2,286047004.4,N
1525680275.1,286047002.7,N
1525680276.0,286047002.7,N
1525680295.8,286047001.8,N
1525680315.7,286047004.2,N
1525680335.5,286047002.2,N
1525680355.3,286047004.0,N
1525680375.2,286047002.2,N
1525680395.0,286047004.0,N
1525680395.9,286047004.0,N
1525680415.7,286047001.7,N
1525680435.6,286047001.3,N
1525680455.4,286046999.7,N
1525680475.3,286047004.4,N
1525680495.1,286047001.7,N
1525680496.0,286047001.7,N
1525680515.8,286047001.7,N
1525680535.7,286047000.4,N
1525680555.5,286047000.2,N
1525680575.4,286047002.3,N
1525680595.2,286047002.4,N
1525680615.0,286046998.1,N
1525680615.9,286046998.1,N
1525680635.8,286047001.1,N
1525680655.6,286047000.5,N
1525680675.4,286047001.0,N
1525680695.3,286047000.0,N
1525680715.1,286047002.4,N
1525680735.9,286047000.4,N
1525680755.7,286047000.3,N
1525680775.5,286047002.0,N
1525680795.4,286047000.2,N
1525680815.2,286047002.4,N
1525680835.0,286047000.1,N
1525680835.9,286047000.1,N
1525680855.8,286047000.4,N
1525680875.6,286046998.1,N
1525680895.5,286046998.2,N
1525680915.3,286047004.4,N
1525680935.1,286047004.3,N
1525680955.9,286047005.5,Y
1525680975.7,286047004.3,P
1525680995.6,286047003.4,N
1525681015.4,286047001.5,N
1525681035.2,286047001.6,N
1525681055.1,286047003.8,N
1525681056.0,286047003.8,N
1525681075.8,286047001.3,N
1525681095.6,286047002.3,N
1525681115.5,286047002.5,N
1525681135.3,286047000.1,N
1525681155.2,286047002.0,N
1525681175.0,286047000.6,N
1525681175.9,286047000.6,N
1525681195.8,286047000.2,N
1525681215.6,286047000.8,N
1525681235.4,286047000.0,N
1525681255.3,286047001.9,N
1525681275.1,286047000.1,N
1525681295.8,286047002.4,N
1525681315.7,286047001.1,N
1525681335.5,286047002.4,N
1525681355.4,286047001.2,N
1525681375.2,286047000.0,N
1525681395.0,286047002.7,N
1525681395.9,286047002.7,N
1525681415.8,286047000.4,N
1525681435.6,286047000.2,N
1525681455.4,286046999.4,N
1525681475.3,286046999.3,N
1525681495.1,286046998.4,N
1525681515.9,286047000.7,N
1525681535.7,286047000.9,N
1525681555.5,286046999.9,N
1525681575.4,286047001.1,N
1525681595.2,286047000.9,N
1525681615.0,286046998.5,N
1525681615.9,286046998.5,N
1525681635.8,286046998.2,N
1525681655.6,286047000.5,N
1525681675.5,286046998.2,N
1525681695.3,286046998.9,N
1525681715.1,286046996.6,N
1525681735.9,286046996.8,N
1525681755.7,286046996.6,N
1525681775.5,286046997.0,N
1525681795.4,286046996.9,N
1525681815.2,286046996.9,N
1525681835.1,286046998.9,N
1525681836.0,286046998.9,N
1525681855.8,286046998.2,N
1525681875.6,286046998.2,N
1525681895.5,286047000.0,N
1525681915.3,286047001.0,N
1525681935.1,286046998.7,N
1525681955.9,286047001.1,N
1525681975.7,286046996.9,N
1525681995.6,286046998.8,N
1525682015.4,286046998.6,N
1525682035.2,286046998.1,N
1525682055.1,286046998.9,N
1525682056.0,286046998.9,N
1525682075.8,286046996.8,N
1525682095.6,286046998.3,N
1525682115.5,286047000.9,N
1525682135.3,286046999.8,N
1525682155.2,286047002.8,N
1525682175.9,286047003.1,N
1525682195.7,286047002.6,N
1525682215.6,286047001.5,N
1525682235.4,286047000.2,N
1525682255.3,286047000.7,N
1525682275.1,286047002.8,N
1525682276.0,286047002.8,N
1525682295.8,286047000.9,N
1525682315.7,286046998.4,N
1525682335.5,286047000.8,N
1525682355.3,286046999.9,N
1525682375.2,286047000.1,N
1525682395.0,286047002.0,N
1525682395.9,286047002.0,N
1525682415.8,286047002.8,N
1525682435.6,286047000.5,N
1525682455.4,286047000.1,N
1525682475.3,286046999.8,N
1525682495.1,286047000.7,N
1525682515.9,286046999.8,N
1525682535.7,286047001.1,N
1525682555.5,286046999.5,N
1525682575.4,286046998.1,N
1525682595.2,286046998.2,N
1525682615.0,286047001.2,N
1525682615.9,286047001.2,N
1525682635.8,286046999.0,N
1525682655.6,286046999.3,N
1525682675.5,286046999.6,N
1525682695.3,286046996.9,N
1525682715.1,286046999.0,N
1525682735.9,286046998.7,N
1525682755.7,286046999.1,N
1525682775.6,286046997.7,N
1525682795.4,286046998.6,N
1525682815.2,286046998.4,N
1525682835.1,286046998.2,N
1525682836.0,286046998.2,N
1525682855.8,286047002.0,N
1525682875.6,286047000.2,N
1525682895.5,286047000.4,N
1525682915.3,286047000.2,N
1525682935.2,286047002.3,N
1525682955.9,286046998.2,N
1525682975.7,286047001.1,N
1525682995.6,286047001.1,N
1525683015.4,286047000.5,N
1525683035.2,286047002.3,N
1525683055.1,286047000.2,N
1525683056.0,286047000.2,N
1525683075.8,286047001.1,N
1525683095.7,286046999.1,N
1525683115.5,286047001.2,N
1525683135.3,286047000.4,N
1525683155.2,286047000.7,N
1525683175.0,286046999.8,N
1525683175.9,286046999.8,N
1525683195.8,286047002.0,N
1525683215.6,286047000.5,N
1525683235.4,286047000.6,N
1525683255.3,286046999.8,N
1525683275.1,286046998.2,N
1525683295.8,286047001.0,N
1525683315.7,286047000.7,N
1525683335.5,286047000.1,N
1525683355.4,286046998.6,N
1525683375.2,286046998.9,N
1525683395.0,286046996.9,N
1525683395.9,286046996.9,N
1525683415.8,286046999.4,N
1525683435.6,286046998.7,N
1525683455.4,286046998.5,N
1525683475.3,286046999.1,N
1525683495.1,286046999.0,N
1525683515.9,286047000.4,N
1525683535.7,286047001.1,N
1525683555.5,286046998.9,N
1525683575.4,286046998.1,N
1525683595.2,286047000.2,N
